Wind_Speed
5 6 5 1 1 2 5 7 3 4 1 4 3 5 6 11 5 2 11 2 6 8 9 18 16 16 17 17 15 14 13 14 12 10 10 12 13 11 10 11 11 11 9 8 10 14 14 15 11
8 1 2 5 2 4 5 10 6 1 4 6 3 6 4 5 7 10 11 7 10 13 10 14 17 16 17 17 16 13 14 14 12 11 10 13 11 10 9 10 12 12 10 9 10 11 13 9 5
5 3 5 3 4 5 2 5 6 2 5 6 2 7 7 2 2 11 10 10 12 14 10 9 17 16 16 16 15 14 13 13 13 11 12 13 12 10 9 13 14 13 8 5 4 7 8 7 5
2 4 6 3 10 9 5 4 4 6 2 2 7 6 5 2 5 5 6 6 13 12 12 11 16 17 17 17 17 16 15 14 14 13 13 13 12 12 13 15 18 13 8 5 3 5 7 5 7
2 6 3 5 10 12 4 2 3 4 6 9 9 6 1 6 8 7 4 8 13 13 11 11 16 18 18 17 16 16 16 15 15 14 13 13 13 13 15 17 15 12 8 5 4 5 6 10 10
6 3 4 6 10 5 3 3 6 7 10 7 7 6 10 8 10 9 10 11 12 13 11 10 16 18 18 17 17 16 17 17 16 15 14 14 14 14 15 15 12 9 9 6 5 5 12 12 13
3 3 8 12 13 10 7 9 2 6 10 11 10 3 12 10 8 10 11 11 14 14 13 13 13 19 19 17 17 16 17 18 18 17 16 15 14 15 15 15 11 7 9 8 7 11 15 14 11
3 2 5 5 7 8 4 3 5 7 8 12 5 5 5 6 13 15 12 13 13 13 16 11 9 19 19 19 19 18 17 17 18 17 17 17 16 17 16 15 12 9 9 10 8 15 17 15 14
3 3 5 8 8 7 6 1 8 4 6 12 4 7 3 3 8 10 13 14 15 14 16 16 13 11 13 17 19 19 19 19 19 19 18 19 18 18 16 15 14 12 11 13 12 18 19 15 13
6 4 5 7 3 6 14 13 11 10 13 10 14 13 15 12 7 9 10 13 16 18 19 20 20 16 14 14 16 16 20 22 23 22 21 21 19 20 17 16 15 13 12 14 16 22 19 19 15
7 6 8 16 14 11 8 15 19 16 10 18 17 15 21 23 21 18 17 18 18 18 18 20 21 24 19 20 20 21 22 24 24 25 25 23 21 18 17 16 14 14 14 14 20 26 20 18 15
10 21 21 22 22 19 12 19 19 23 22 23 21 24 18 20 18 18 24 25 25 25 23 20 21 26 29 24 20 23 22 23 26 27 26 25 25 22 22 18 16 16 13 17 22 28 21 15 14
16 12 20 26 29 19 22 20 20 21 29 27 27 27 29 27 23 25 27 23 26 29 29 28 24 27 28 31 28 19 23 22 25 30 30 29 28 28 26 22 16 15 12 19 24 23 19 18 16
17 24 19 21 25 26 21 21 22 24 25 28 31 34 33 31 29 29 29 31 27 28 30 33 34 33 31 30 30 29 19 22 23 25 33 33 31 31 29 24 17 14 14 18 20 18 20 23 18
12 14 15 18 25 17 18 13 16 39 32 33 32 31 28 27 26 30 27 29 31 30 29 32 35 39 37 34 30 30 29 20 23 26 27 32 34 35 34 26 19 16 16 22 20 21 21 22 18
14 13 14 7 12 15 20 12 10 15 7 12 10 14 18 20 23 22 21 26 28 29 29 29 33 36 36 37 38 38 37 34 30 26 23 27 35 37 34 31 24 20 20 23 25 23 20 20 21
11 10 15 14 9 6 9 14 9 15 19 17 21 23 24 22 19 16 19 11 13 19 25 25 23 31 30 30 31 32 35 35 35 35 28 24 32 35 35 35 29 26 26 27 26 26 24 22 21
8 15 19 19 10 15 16 22 10 21 23 19 23 27 29 28 12 9 10 17 14 12 18 23 27 28 30 28 29 29 31 33 27 34 34 27 26 31 31 37 33 30 30 31 27 28 28 22 25
18 20 23 23 17 16 20 24 24 12 19 21 21 26 13 12 11 11 3 7 12 12 15 22 18 24 25 29 30 33 34 36 29 29 27 31 28 29 29 30 32 33 34 32 31 28 25 25 26
17 22 25 25 21 19 21 23 16 13 13 19 24 1 7 13 13 8 6 6 6 12 12 16 19 18 20 26 28 33 35 37 37 32 27 26 32 31 29 30 28 32 33 35 32 30 29 29 27
18 19 20 23 25 23 21 24 17 12 17 10 11 15 16 19 16 14 13 11 10 10 11 10 9 17 19 22 23 27 30 32 31 31 27 25 25 32 33 29 28 27 31 34 35 34 32 35 35
16 18 24 23 18 14 15 21 18 18 22 9 16 23 24 24 21 17 14 10 7 3 2 10 9 13 19 20 24 27 31 30 29 30 27 23 24 25 29 29 29 31 29 33 34 34 33 32 36
17 20 18 22 20 17 16 14 9 12 14 12 15 24 24 24 22 21 21 19 16 11 10 6 10 10 16 21 24 25 23 26 22 20 22 25 26 24 24 26 28 28 25 28 31 35 34 39 33
24 20 22 15 9 10 16 15 4 10 8 14 18 25 24 23 22 23 23 23 25 23 21 17 16 14 16 15 19 22 19 20 22 21 20 20 21 23 22 25 25 25 25 23 25 29 34 36 38
22 19 8 4 5 12 12 8 6 14 15 17 15 16 18 18 23 27 27 27 30 30 29 28 23 20 18 18 20 17 16 16 15 12 13 12 16 22 24 24 27 25 23 23 22 27 29 34 38
16 11 3 8 9 12 11 3 5 18 26 30 29 25 30 33 29 25 28 27 30 32 34 30 28 28 23 19 18 17 17 19 18 15 13 11 11 14 16 21 22 25 24 22 27 26 27 30 36
11 11 16 12 13 9 7 4 14 15 19 28 32 31 29 28 30 30 30 28 29 32 29 33 32 27 24 24 20 17 15 14 14 13 12 11 9 10 12 16 18 24 24 28 26 26 28 29 32
10 14 4 3 5 11 3 7 7 18 17 17 20 28 32 32 28 28 26 26 29 30 32 31 31 33 26 23 22 19 15 12 9 9 13 13 15 14 15 18 21 21 21 26 28 29 30 30 30
9 9 6 6 5 4 4 6 12 14 13 12 16 23 28 28 24 26 26 29 29 28 30 32 31 27 31 26 24 19 17 13 9 6 5 9 14 16 16 16 18 23 23 24 26 30 27 29 30
11 12 8 3 5 6 5 3 9 11 15 21 22 24 25 25 21 20 24 25 29 32 32 35 33 30 25 29 26 22 17 14 10 7 4 1 4 13 18 16 17 19 21 22 23 24 30 30 30
Wind_Direction
89 39 37 215 261 207 262 249 118 122 359 241 21 334 352 301 334 131 140 199 135 211 182 173 176 172 171 177 175 168 170 170 173 168 161 157 155 157 155 154 147 151 154 129 158 151 146 145 132
104 47 185 261 242 217 257 219 138 244 200 95 27 294 324 293 297 133 147 157 146 193 208 191 181 178 177 179 182 178 175 179 181 182 169 167 167 169 169 168 164 160 143 129 132 143 147 153 163
92 160 254 200 211 235 5 64 353 66 79 132 243 190 268 293 344 124 151 156 149 194 202 212 186 184 180 183 185 186 185 185 185 182 177 177 178 177 176 169 165 158 147 142 162 194 206 219 227
311 252 262 270 258 268 270 337 93 330 153 248 248 290 196 331 44 131 161 172 155 187 198 217 197 191 187 185 188 190 189 189 190 186 185 186 189 185 177 173 168 165 173 190 201 225 215 216 174
13 273 267 229 248 256 268 345 1 231 271 186 209 256 153 217 226 190 183 161 169 182 204 202 206 200 197 195 190 194 194 195 195 193 192 196 197 194 190 179 174 192 206 218 225 208 190 159 140
271 251 276 255 265 309 114 215 291 222 264 266 190 248 283 175 207 195 175 157 182 188 207 219 213 201 196 196 198 196 196 197 200 200 200 204 204 197 188 185 194 218 217 222 217 187 158 149 147
257 281 256 277 283 310 306 46 328 274 242 248 172 192 259 214 197 214 175 176 173 187 177 230 212 203 201 201 200 200 199 197 198 200 205 210 202 197 190 195 209 216 216 208 201 175 165 157 157
282 267 270 269 273 276 78 38 344 327 303 286 200 206 241 31 193 206 186 178 188 198 183 215 216 209 207 206 204 205 205 203 200 200 203 207 207 203 201 213 219 225 225 213 208 181 175 173 158
245 269 244 253 276 307 96 90 309 224 279 295 284 253 346 265 191 217 218 200 191 205 202 187 217 229 223 223 217 209 208 208 207 205 205 207 210 209 212 217 224 236 237 215 210 181 179 181 176
209 231 240 252 339 303 317 326 301 300 287 256 269 254 256 260 227 232 226 225 222 207 209 205 195 217 223 223 235 230 223 212 209 210 210 209 212 212 215 220 231 234 225 217 198 179 183 191 189
215 233 252 280 301 317 301 300 287 275 259 257 266 260 239 247 249 238 235 241 233 233 235 230 208 203 208 210 223 228 230 223 216 212 214 211 212 211 211 221 227 232 219 203 184 177 184 183 190
257 255 268 278 285 282 281 277 275 284 273 270 262 264 265 246 244 241 244 244 238 235 228 229 232 215 208 202 219 220 233 226 218 217 216 210 207 204 219 224 240 229 216 189 183 179 180 178 196
258 278 269 279 281 275 276 261 264 268 266 267 264 260 261 259 252 250 248 254 248 240 231 225 226 222 220 213 200 217 225 239 231 218 213 215 206 207 208 219 233 216 197 181 174 181 173 185 196
291 300 291 295 287 283 272 267 267 259 261 258 254 257 260 264 262 260 254 248 250 242 238 232 224 222 220 216 212 203 215 231 236 229 222 216 212 211 209 215 219 211 189 183 182 184 189 199 194
301 298 285 267 263 249 258 258 245 256 263 256 255 258 261 262 262 260 256 249 244 248 241 236 235 228 229 223 224 221 211 223 230 225 226 224 214 212 206 201 209 202 192 187 196 193 205 208 204
287 271 275 250 268 243 214 244 279 308 349 337 249 273 275 269 275 269 266 254 250 247 241 238 233 232 234 233 234 235 236 221 227 232 222 223 217 214 213 205 205 200 198 188 206 201 203 203 194
239 266 259 269 192 213 182 251 234 286 307 302 295 289 289 278 271 259 239 234 213 223 224 221 226 234 232 226 231 231 228 220 223 226 227 216 217 217 216 210 210 202 198 201 205 199 207 193 189
262 271 279 285 291 284 278 268 243 241 255 270 279 286 282 275 263 196 211 225 225 230 236 230 226 231 234 229 224 225 217 212 222 223 221 219 218 219 222 212 211 212 193 203 206 209 210 197 190
304 299 292 292 297 289 281 283 287 280 275 268 261 260 295 89 63 66 25 260 242 235 247 239 238 231 232 228 219 215 213 209 213 226 224 212 216 215 220 216 217 217 197 202 203 206 207 189 195
288 283 284 284 286 272 274 273 280 286 282 288 275 20 48 59 53 30 341 313 296 254 255 243 224 217 228 218 219 210 210 211 212 217 220 216 209 216 219 221 222 220 216 203 206 205 196 192 196
297 294 304 309 320 305 306 291 294 291 284 305 73 87 72 61 46 24 8 334 299 275 257 243 230 195 200 203 208 203 206 209 210 212 214 212 209 210 217 221 223 228 220 218 211 211 202 195 201
319 335 325 317 316 298 316 290 286 286 270 126 96 75 61 51 43 29 19 10 353 344 238 226 215 198 193 195 192 200 209 206 206 203 204 203 202 207 210 217 222 225 225 221 219 216 214 215 204
325 332 322 315 301 296 286 278 281 296 271 103 78 76 66 55 46 39 34 28 29 41 67 128 170 191 200 195 197 193 197 198 191 193 197 201 202 204 201 213 216 224 223 224 221 219 221 220 224
343 331 317 290 288 284 275 277 53 12 7 84 61 59 56 51 43 40 32 43 31 46 52 68 108 135 165 181 190 191 193 181 179 183 187 197 203 204 206 210 212 215 216 223 224 226 223 220 231
341 334 325 317 328 281 3 341 32 36 24 36 62 69 69 66 50 39 33 31 34 41 46 45 62 74 107 151 162 173 181 179 185 186 193 194 200 207 210 215 213 219 225 219 228 227 234 231 229
313 292 316 305 307 305 304 355 54 39 38 29 31 35 43 34 32 37 34 25 29 46 39 38 56 46 59 92 123 150 169 156 152 163 176 197 216 209 214 218 221 223 218 221 230 232 232 234 233
338 311 303 293 288 266 262 84 60 36 33 28 23 17 24 30 30 27 25 24 25 27 25 32 40 33 49 59 72 84 126 163 177 191 199 205 215 231 221 220 220 227 225 223 223 228 227 232 237
41 5 321 308 281 254 350 64 32 29 24 28 22 14 11 15 25 22 19 14 18 19 19 21 18 32 35 48 55 56 70 92 130 176 205 213 220 223 228 233 231 233 233 230 233 229 228 236 232
354 342 344 297 310 331 338 71 15 25 15 15 14 16 10 8 17 14 8 7 9 6 5 9 15 14 21 28 42 47 51 62 74 98 173 211 223 226 229 228 236 237 235 238 228 231 234 233 241
17 16 330 281 329 298 238 82 14 18 8 6 8 11 4 3 2 12 6 0 355 353 358 356 360 10 6 10 21 31 31 47 53 46 48 110 215 226 224 225 230 239 239 237 237 232 233 237 237
Height
1492 1493 1494 1497 1504 1498 1494 1479 1461 1471 1474 1472 1474 1474 1476 1474 1474 1488 1482 1483 1485 1483 1485 1488 1491 1493 1496 1500 1503 1505 1508 1511 1513 1516 1517 1520 1522 1524 1526 1529 1530 1531 1533 1534 1535 1537 1539 1540 1542
1491 1496 1496 1494 1502 1502 1486 1465 1469 1469 1470 1473 1476 1477 1477 1476 1474 1477 1479 1482 1485 1483 1485 1488 1491 1494 1497 1500 1503 1505 1508 1511 1513 1515 1518 1520 1522 1525 1527 1528 1531 1532 1534 1536 1537 1539 1540 1542 1543
1493 1495 1497 1493 1493 1493 1481 1468 1468 1467 1470 1474 1477 1477 1477 1475 1475 1477 1479 1482 1484 1483 1484 1487 1491 1494 1497 1499 1502 1505 1508 1511 1513 1515 1518 1520 1522 1524 1526 1528 1531 1533 1535 1536 1538 1540 1541 1542 1543
1497 1497 1495 1497 1490 1472 1466 1465 1466 1470 1472 1474 1476 1476 1475 1476 1476 1476 1479 1481 1484 1483 1484 1486 1490 1493 1497 1499 1501 1504 1507 1510 1513 1515 1517 1520 1521 1524 1525 1528 1531 1534 1535 1537 1538 1539 1540 1541 1543
1497 1495 1496 1490 1483 1470 1462 1465 1467 1471 1471 1472 1476 1476 1475 1476 1477 1478 1480 1482 1484 1483 1483 1485 1488 1491 1495 1498 1501 1503 1506 1509 1512 1515 1517 1519 1521 1523 1525 1528 1531 1533 1535 1536 1538 1538 1540 1542 1544
1497 1494 1496 1492 1476 1461 1461 1464 1467 1469 1471 1471 1473 1476 1476 1475 1475 1478 1480 1482 1484 1484 1484 1485 1486 1489 1493 1496 1499 1502 1505 1508 1511 1514 1516 1518 1521 1523 1525 1528 1531 1533 1535 1536 1537 1538 1540 1543 1544
1496 1494 1492 1486 1479 1471 1464 1463 1466 1468 1468 1470 1471 1474 1474 1473 1475 1476 1479 1481 1482 1483 1484 1484 1485 1488 1491 1494 1497 1500 1503 1506 1509 1512 1516 1518 1520 1522 1524 1527 1530 1532 1534 1535 1537 1538 1541 1543 1546
1493 1491 1487 1479 1477 1472 1464 1467 1468 1470 1468 1468 1468 1469 1472 1473 1473 1475 1478 1480 1482 1482 1483 1483 1485 1487 1490 1492 1495 1498 1501 1504 1507 1511 1514 1516 1519 1521 1523 1526 1528 1530 1532 1534 1536 1538 1541 1544 1546
1493 1496 1489 1480 1473 1469 1464 1467 1468 1468 1469 1468 1467 1467 1469 1471 1472 1473 1475 1478 1480 1482 1482 1484 1483 1485 1488 1491 1494 1496 1499 1502 1505 1509 1512 1514 1517 1520 1522 1524 1526 1528 1530 1533 1534 1537 1540 1543 1546
1491 1490 1478 1469 1468 1469 1467 1468 1468 1468 1467 1465 1465 1466 1468 1468 1470 1471 1473 1474 1478 1479 1480 1482 1484 1484 1485 1489 1491 1495 1497 1499 1502 1506 1509 1512 1515 1517 1520 1522 1524 1526 1527 1530 1532 1536 1539 1542 1545
1483 1481 1472 1468 1468 1468 1468 1468 1468 1465 1463 1463 1462 1462 1463 1464 1465 1467 1470 1471 1472 1475 1477 1479 1481 1483 1484 1485 1489 1492 1494 1497 1499 1502 1505 1509 1513 1516 1517 1519 1521 1523 1525 1527 1530 1534 1537 1541 1545
1481 1474 1472 1469 1469 1468 1466 1465 1462 1463 1458 1459 1458 1458 1458 1459 1461 1462 1463 1466 1467 1469 1472 1475 1477 1479 1481 1482 1484 1487 1491 1493 1496 1499 1502 1506 1510 1512 1514 1517 1520 1521 1523 1525 1529 1533 1537 1540 1544
1472 1469 1468 1468 1467 1464 1463 1461 1460 1455 1453 1454 1453 1454 1453 1454 1455 1457 1459 1461 1462 1463 1466 1468 1471 1472 1475 1479 1481 1483 1486 1489 1492 1495 1498 1501 1506 1509 1511 1515 1518 1520 1522 1524 1528 1533 1537 1540 1542
1471 1468 1465 1465 1462 1460 1458 1455 1457 1448 1446 1445 1447 1446 1448 1450 1450 1451 1452 1454 1456 1457 1459 1462 1464 1466 1469 1471 1476 1479 1482 1484 1487 1491 1494 1497 1501 1505 1509 1511 1515 1518 1521 1524 1528 1532 1535 1538 1541
1471 1469 1464 1462 1457 1452 1453 1447 1447 1437 1441 1439 1439 1441 1442 1443 1444 1444 1445 1446 1449 1452 1454 1455 1457 1460 1462 1466 1469 1474 1478 1481 1481 1486 1489 1492 1497 1500 1505 1508 1512 1515 1519 1523 1527 1531 1533 1537 1541
1472 1468 1462 1448 1445 1444 1446 1439 1432 1436 1435 1434 1435 1437 1439 1439 1440 1440 1440 1441 1443 1446 1447 1450 1451 1453 1455 1458 1463 1467 1472 1476 1478 1479 1484 1488 1492 1497 1501 1505 1509 1513 1517 1521 1524 1528 1531 1534 1539
1467 1464 1453 1442 1438 1439 1440 1433 1433 1432 1433 1434 1435 1435 1435 1435 1436 1437 1434 1434 1435 1438 1441 1442 1445 1446 1447 1450 1455 1459 1464 1469 1473 1476 1479 1484 1487 1492 1497 1500 1505 1509 1515 1517 1520 1524 1527 1532 1537
1467 1454 1444 1441 1440 1436 1433 1423 1427 1428 1430 1430 1432 1432 1432 1431 1432 1428 1429 1431 1432 1433 1434 1436 1439 1441 1443 1445 1448 1452 1457 1464 1465 1470 1474 1480 1483 1487 1491 1496 1500 1505 1510 1514 1517 1521 1524 1530 1534
1454 1453 1447 1438 1438 1439 1431 1424 1416 1424 1424 1424 1425 1426 1427 1429 1427 1427 1426 1427 1428 1431 1433 1434 1435 1436 1436 1439 1442 1446 1449 1456 1460 1463 1470 1474 1479 1482 1487 1491 1496 1501 1504 1509 1512 1517 1521 1527 1532
1457 1455 1446 1436 1434 1434 1425 1417 1414 1417 1419 1418 1419 1420 1422 1427 1427 1427 1426 1427 1427 1430 1430 1429 1430 1430 1432 1434 1438 1442 1445 1450 1456 1459 1464 1468 1473 1478 1481 1487 1491 1495 1500 1504 1508 1511 1516 1520 1528
1456 1454 1446 1444 1436 1432 1430 1418 1417 1414 1413 1413 1416 1419 1424 1428 1429 1429 1428 1429 1431 1431 1430 1427 1425 1427 1427 1430 1435 1439 1443 1447 1450 1455 1459 1463 1467 1473 1477 1481 1486 1491 1495 1499 1504 1508 1511 1513 1520
1467 1465 1457 1448 1447 1446 1437 1425 1422 1417 1410 1414 1420 1426 1430 1431 1432 1432 1432 1433 1433 1430 1427 1424 1422 1422 1425 1428 1431 1435 1437 1440 1444 1450 1454 1458 1463 1467 1472 1476 1481 1486 1490 1494 1499 1504 1507 1510 1513
1476 1467 1463 1457 1452 1448 1442 1435 1414 1408 1404 1415 1427 1434 1438 1440 1441 1441 1440 1438 1434 1429 1424 1421 1420 1421 1422 1424 1427 1431 1435 1439 1442 1446 1450 1454 1458 1463 1468 1472 1477 1481 1484 1489 1493 1498 1501 1505 1509
1482 1474 1466 1452 1447 1450 1435 1431 1439 1447 1437 1435 1441 1444 1446 1446 1448 1445 1444 1440 1436 1427 1422 1420 1417 1419 1420 1422 1424 1429 1433 1434 1438 1442 1446 1450 1454 1459 1463 1468 1472 1476 1480 1484 1490 1493 1496 1501 1504
1484 1481 1479 1481 1474 1448 1438 1440 1462 1458 1460 1452 1450 1452 1450 1449 1451 1449 1446 1443 1432 1426 1422 1420 1416 1417 1418 1420 1422 1426 1430 1432 1437 1440 1444 1447 1450 1454 1458 1463 1467 1471 1475 1479 1484 1488 1492 1494 1497
1489 1486 1494 1500 1482 1473 1448 1450 1465 1471 1470 1467 1460 1460 1454 1452 1455 1453 1450 1450 1441 1432 1430 1425 1419 1418 1417 1418 1419 1424 1427 1430 1433 1437 1440 1445 1448 1452 1456 1460 1463 1467 1471 1475 1479 1482 1486 1490 1494
1486 1489 1479 1479 1477 1473 1450 1464 1468 1478 1479 1475 1472 1473 1465 1462 1458 1456 1455 1454 1449 1442 1432 1431 1428 1425 1424 1421 1420 1422 1424 1429 1432 1435 1439 1442 1445 1449 1452 1455 1459 1463 1466 1471 1474 1476 1479 1484 1487
1496 1491 1483 1477 1473 1460 1449 1478 1490 1488 1486 1484 1484 1481 1473 1466 1462 1462 1460 1461 1453 1448 1445 1434 1436 1429 1433 1422 1426 1423 1425 1427 1430 1433 1436 1439 1442 1445 1448 1451 1454 1457 1461 1464 1467 1470 1474 1478 1480
1502 1494 1489 1482 1475 1473 1466 1495 1506 1501 1498 1493 1490 1484 1478 1473 1469 1468 1468 1461 1457 1453 1449 1445 1437 1433 1428 1435 1424 1426 1427 1428 1429 1431 1434 1436 1439 1441 1444 1447 1449 1452 1455 1458 1460 1464 1467 1471 1475
1501 1505 1498 1491 1486 1476 1472 1510 1510 1505 1500 1494 1489 1486 1484 1479 1474 1472 1470 1466 1463 1457 1450 1445 1441 1437 1432 1427 1429 1427 1429 1427 1429 1431 1432 1434 1435 1437 1439 1442 1444 1447 1449 1452 1455 1458 1461 1464 1468